This is the latest recevied weather packets stored in our database for station/object 7M1JBF-11. If no packets are shown the sender has not sent any weather packets the latest 1 day(s).
| Time | Temp. | Humidity | Pressure | Rain* | Wind** | Luminosity | Snow |
|---|---|---|---|---|---|---|---|
| 1778086962 | 18.89° C | 100% | 1015.7 hPa | 0 mm | - | - | - |
| 1778085759 | 18.89° C | 100% | 1015.8 hPa | 0 mm | - | - | - |
| 1778083955 | 18.89° C | 100% | 1016 hPa | 0 mm | - | - | - |
| 1778082151 | 18.89° C | 100% | 1016.3 hPa | 0 mm | - | - | - |
| 1778080948 | 18.89° C | 100% | 1016.6 hPa | 0 mm | - | - | - |
| 1778080347 | 18.33° C | 100% | 1016.7 hPa | 0 mm | - | - | - |
| 1778079745 | 18.33° C | 100% | 1016.8 hPa | 0 mm | - | - | - |
| 1778077340 | 18.33° C | 100% | 1017.2 hPa | 0 mm | - | - | - |
| 1778075536 | 18.33° C | 100% | 1017.3 hPa | 0 mm | - | - | - |
| 1778073732 | 18.33° C | 100% | 1017.8 hPa | 0 mm | - | - | - |
| 1778071928 | 18.33° C | 100% | 1017.4 hPa | 0 mm | - | - | - |
| 1778067117 | 18.33° C | 100% | 1017.9 hPa | 0 mm | - | - | - |
| 1778065914 | 18.89° C | 100% | 1017.8 hPa | 0 mm | - | - | - |
| 1778065313 | 18.89° C | 100% | 1017.8 hPa | 0 mm | - | - | - |
| 1778062306 | 19.44° C | 100% | 1017.9 hPa | 0 mm | - | - | - |
| 1778060502 | 20° C | 100% | 1017.7 hPa | 0 mm | - | - | - |
| 1778059900 | 20° C | 100% | 1017.9 hPa | 0 mm | - | - | - |
| 1778057495 | 20° C | 100% | 1017.9 hPa | 0 mm | - | - | - |
| 1778052684 | 21.11° C | 100% | 1018.2 hPa | 0 mm | - | - | - |
| 1778052083 | 21.11° C | 100% | 1018 hPa | 0 mm | - | - | - |
| 1778050881 | 21.67° C | 100% | 1017.9 hPa | 0 mm | - | - | - |
| 1778049076 | 21.67° C | 100% | 1017.9 hPa | 0 mm | - | - | - |
| 1778047873 | 21.67° C | 100% | 1018.3 hPa | 0 mm | - | - | - |
| 1778047272 | 21.67° C | 100% | 1018.2 hPa | 0 mm | - | - | - |
| 1778044265 | 21.67° C | 100% | 1018.8 hPa | 0 mm | - | - | - |
* Rain since midnight (hover to see other rain measurements)
** Current wind speed in m/s (hover to see current wind gust speed)